Back to catalog

STARLINK-31906

AliveCommunicationsVLEO
NORAD 59842·PAYLOAD·🇺🇸 United States

Launched May 23, 2024 from Cape Canaveral Space Force Station

Loading…

Next Passes (next 24 hours)

TLE

FreshSource: CelesTrak SupGP

Epoch: Sep 14, 2026, 14:10 UTC

1 59842C 24097H   26257.59076389  .00049833  00000+0  18052-2 0  2570
2 59842  43.0001 287.6699 0001489 276.5559 146.0368 15.27548336    19

Track STARLINK-31906 in real time with AllMySat

Download on the App Store